Middle River, MD

1:01 PM EST on December 03, 2016 (GMT -0500)
Martin State

Weather History for KMTN - May, 2012

Change the Weather History Date:

Monday, May 14, 2012

  Actual Average Record
Temperature  
Mean Temperature 68 °F -  
Max Temperature 71 °F 69 °F 86 °F (2004)
Min Temperature 64 °F 53 °F 35 °F (2013)
Cooling Degree Days 2    
Growing Degree Days 18 (Base 50)    
Moisture  
Dew Point 63 °F    
Average Humidity 87    
Maximum Humidity 94    
Minimum Humidity 73    
Precipitation  
Precipitation 0.00 in - - ()
Sea Level Pressure  
Sea Level Pressure 30.11 in    
Wind  
Wind Speed 7 mph (SSE)    
Max Wind Speed 10 mph    
Max Gust Speed -    
Visibility 9 miles    
Events Rain    
Averages and records for this station are not official NWS values.
T = Trace of Precipitation, MM = Missing Value Source: NWS Daily Summary

Daily Weather History Graph

Daily Weather History Graph

Search for Another Location

Airport or City:

Trip Planner

Search our weather history database for the weather conditions in past years. The results will help you decide how hot, cold, wet, or windy it might be!

Date:

Astronomy

May. 14, 2012 Rise Set
Actual Time 5:52 AM EDT 8:11 PM EDT
Civil Twilight 5:22 AM EDT 8:42 PM EDT
Nautical Twilight 4:45 AM EDT 9:19 PM EDT
Astronomical Twilight 4:04 AM EDT 10:00 PM EDT
Moon 2:23 AM EDT (5/14) 2:32 PM EDT (5/14)
Length of Visible Light 15h 19m
Length of Day
14h 19m
Waning Crescent, 33% of the Moon is Illuminated
May 14
Waning Crescent
May 20
New
May 28
First Quarter
Jun 4
Full
Jun 11
Last Quarter

Hourly Weather History & Observations

Time (EDT) Temp. Dew Point Humidity Pressure Visibility Wind Dir Wind Speed Gust Speed Precip Events Conditions
12:10 AM - - N/A% 30.14 in 10.0 mi SSE 5.8 mph - N/A   Clear
12:30 AM - - N/A% 30.14 in 10.0 mi SSE 4.6 mph - N/A   Clear
12:50 AM - - N/A% 30.14 in 10.0 mi SSE 5.8 mph - N/A   Clear
1:15 AM - - N/A% 30.13 in 10.0 mi SSE 5.8 mph - N/A   Clear
1:35 AM - - N/A% 30.13 in 10.0 mi SSE 6.9 mph - N/A   Clear
1:55 AM - - N/A% 30.12 in 10.0 mi South 6.9 mph - N/A   Clear
2:15 AM - - N/A% 30.12 in 10.0 mi South 6.9 mph - N/A   Clear
2:40 AM - - N/A% 30.12 in 10.0 mi South 8.1 mph - N/A   Clear
3:00 AM - - N/A% 30.12 in 10.0 mi South 9.2 mph - N/A   Clear
3:40 AM - - N/A% 30.12 in 10.0 mi SSW 8.1 mph - N/A   Clear
4:05 AM - - N/A% 30.12 in 10.0 mi South 6.9 mph - N/A   Clear
4:25 AM - - N/A% 30.12 in 10.0 mi South 5.8 mph - N/A   Clear
4:45 AM - - N/A% 30.12 in 10.0 mi South 6.9 mph - N/A   Scattered Clouds
5:05 AM - - N/A% 30.12 in 10.0 mi South 5.8 mph - N/A Rain Light Rain
5:25 AM - - N/A% 30.12 in 10.0 mi South 3.5 mph - N/A   Light Drizzle
5:54 AM 66.2 °F 59.0 °F 78% 30.13 in 10.0 mi South 3.5 mph - N/A   Mostly Cloudy
6:55 AM 66.2 °F 60.8 °F 83% 30.14 in 10.0 mi SSE 10.4 mph - N/A   Mostly Cloudy
7:55 AM 64.4 °F 62.6 °F 94% 30.15 in 10.0 mi SSE 10.4 mph - N/A   Light Drizzle
8:45 AM 64.4 °F 62.6 °F 94% 30.15 in 7.0 mi SSE 10.4 mph - N/A   Light Drizzle
9:45 AM 64.4 °F 62.6 °F 94% 30.15 in 4.0 mi SE 8.1 mph - N/A   Light Drizzle
10:45 AM 64.4 °F 62.6 °F 94% 30.14 in 5.0 mi SE 8.1 mph - N/A Rain Light Rain
11:45 AM 66.2 °F 64.4 °F 94% 30.15 in 6.0 mi SSE 10.4 mph - N/A Rain Light Rain
12:20 PM 66.2 °F 64.4 °F 94% 30.14 in 10.0 mi SSE 9.2 mph - N/A   Overcast
12:45 PM 66.2 °F 64.4 °F 94% 30.13 in 4.0 mi SSE 8.1 mph - N/A Rain Light Rain
1:50 PM 68.0 °F 64.4 °F 88% 30.11 in 7.0 mi SE 8.1 mph - N/A   Overcast
2:45 PM 71.6 °F 64.4 °F 78% 30.09 in 10.0 mi SSE 8.1 mph - N/A   Overcast
3:50 PM 71.6 °F 62.6 °F 73% 30.07 in 10.0 mi SSE 9.2 mph - N/A   Overcast
4:45 PM 69.8 °F 62.6 °F 78% 30.06 in 10.0 mi SSE 8.1 mph - N/A   Overcast
5:50 PM 69.8 °F 62.6 °F 78% 30.06 in 10.0 mi SSE 6.9 mph - N/A   Overcast
6:45 PM 68.0 °F 64.4 °F 88% 30.06 in 5.0 mi SE 4.6 mph - N/A   Drizzle
7:45 PM 68.0 °F 64.4 °F 88% 30.06 in 5.0 mi SE 4.6 mph - N/A   Overcast
8:50 PM 66.2 °F 64.4 °F 94% 30.06 in 7.0 mi East 3.5 mph - N/A   Overcast
9:45 PM 66.2 °F 62.6 °F 88% 30.07 in 7.0 mi East 3.5 mph - N/A   Overcast
10:05 PM - - N/A% 30.07 in 10.0 mi ENE 4.6 mph - N/A   Scattered Clouds
10:30 PM - - N/A% 30.07 in 10.0 mi East 3.5 mph - N/A   Scattered Clouds
10:50 PM - - N/A% 30.07 in 10.0 mi East 6.9 mph - N/A Rain Light Rain
11:10 PM - - N/A% 30.06 in 10.0 mi East 6.9 mph - N/A   Mostly Cloudy
11:30 PM - - N/A% 30.06 in 10.0 mi East 6.9 mph - N/A   Mostly Cloudy
11:55 PM - - N/A% 30.06 in 10.0 mi ESE 10.4 mph - N/A   Mostly Cloudy